Moses Lake, WA
on Thursday, December 27, 2012

Thursday
Previous Day Next Day
Daily Summary
 ActualAverageRecord
Temperature
Mean Temperature °F 28°F  
Max Temperature 34°F 34°F 61°F (1980)
Min Temperature 31°F 21°F -7°F (1996)
Degree Days
Heating Degree Days 32 37  
Month to date heating degree days 785 975  
Since 1 July heating degree days 2053 2436  
Cooling Degree Days 0 0  
Month to date cooling degree days 0 0  
Year to date cooling degree days 719 615  
Moisture
Dew Point 30°F   
Average Humidity 93    
Maximum Humidity 100    
Minimum Humidity 85    
Precipitation
Precipitation T in 0.05 in 0.32 in (2002)
Month to date precipitation 1.80 1.22  
Year to date precipitation 9.54 8.89  
Wind
Wind Speed 2 mph   
Max Wind Speed 7 mph   
Max Gust Speed 15 mph   
Visibility 4 miles   
Events Snow   

Key: T is trace of precipitation, MM is missing value
Source: NWS Daily Summary
Time(PST)TemperatureDew PointHumidity Pressure Visibility Wind DirectionWind SpeedGust SpeedPrecipitationEvents Conditions
12:03 AM 32.0°F 30.2°F 93% 29.95 in 1.5 miles SSE 3.5 mph - 0.00 in   Overcast
12:13 AM 32.0°F 30.2°F 93% 29.95 in 1.0 miles Calm Calm - N/A Snow Light Snow
12:22 AM 32.0°F 30.2°F 93% 29.96 in 0.8 miles South 3.5 mph - 0.00 in   Overcast
12:29 AM 32.0°F 30.2°F 93% 29.96 in 0.8 miles South 3.5 mph - 0.00 in   Overcast
12:50 AM 32.0°F 30.2°F 93% 29.96 in 1.0 miles South 3.5 mph - 0.00 in   Overcast
12:52 AM 32.0°F 30.9°F 96% 30.00 in 1.2 miles South 3.5 mph - 0.00 in   Overcast
1:25 AM 32.0°F 30.2°F 93% 29.97 in 2.5 miles South 3.5 mph - 0.00 in   Overcast
1:36 AM 32.0°F 30.2°F 93% 29.97 in 3.0 miles South 4.6 mph - 0.00 in   Overcast
1:50 AM 32.0°F 30.2°F 93% 29.98 in 2.5 miles South 4.6 mph - 0.00 in   Overcast
1:52 AM 32.0°F 30.0°F 92% 30.01 in 2.5 miles South 4.6 mph - 0.00 in   Overcast
2:07 AM 32.0°F 30.2°F 93% 29.98 in 2.5 miles SSE 4.6 mph - N/A   Overcast
2:24 AM 32.0°F 30.2°F 93% 29.98 in 3.0 miles SSE 4.6 mph - 0.00 in   Overcast
2:52 AM 32.0°F 30.0°F 92% 30.02 in 4.0 miles South 4.6 mph - 0.00 in   Overcast
3:52 AM 32.0°F 30.0°F 92% 30.03 in 5.0 miles SSE 3.5 mph - N/A   Overcast
4:03 AM 32.0°F 30.2°F 93% 29.99 in 4.0 miles South 4.6 mph - N/A   Overcast
4:13 AM 32.0°F 28.4°F 87% 29.99 in 4.0 miles South 4.6 mph - N/A   Overcast
4:52 AM 32.0°F 28.9°F 88% 30.03 in 3.0 miles South 3.5 mph - N/A   Overcast
5:20 AM 32.0°F 28.4°F 87% 30.00 in 3.0 miles South 4.6 mph - N/A   Overcast
5:41 AM 32.0°F 30.2°F 93% 30.01 in 3.0 miles SSE 3.5 mph - N/A   Overcast
5:52 AM 30.9°F 30.0°F 96% 30.06 in 2.5 miles Calm Calm - N/A   Overcast
6:52 AM 30.9°F 28.9°F 92% 30.06 in 2.0 miles Calm Calm - 0.00 in   Overcast
7:44 AM 30.2°F 28.4°F 93% 30.03 in 1.5 miles SE 3.5 mph - 0.00 in Snow Light Snow
7:52 AM 30.9°F 28.9°F 92% 30.07 in 1.2 miles SE 3.5 mph - 0.00 in Snow Light Snow
8:18 AM 32.0°F 30.2°F 93% 30.04 in 1.2 miles Calm Calm - 0.00 in   Overcast
8:43 AM 32.0°F 30.2°F 93% 30.05 in 1.5 miles ESE 3.5 mph - 0.00 in   Overcast
8:52 AM 32.0°F 30.0°F 92% 30.09 in 1.5 miles Calm Calm - 0.00 in   Overcast
9:52 AM 33.1°F 30.9°F 92% 30.11 in 1.8 miles Calm Calm - N/A   Overcast
10:52 AM 33.1°F 30.0°F 89% 30.12 in 1.8 miles Calm Calm - N/A   Overcast
10:59 AM 33.8°F 30.2°F 87% 30.08 in 2.5 miles Calm Calm - N/A   Mostly Cloudy
11:31 AM 33.8°F 30.2°F 87% 30.09 in 3.0 miles Calm Calm - N/A   Mostly Cloudy
11:52 AM 34.0°F 30.9°F 89% 30.12 in 4.0 miles Calm Calm - N/A   Mostly Cloudy
11:59 AM 33.8°F 30.2°F 87% 30.08 in 4.0 miles Calm Calm - N/A   Overcast
12:36 PM 33.8°F 30.2°F 87% 30.08 in 6.0 miles SE 3.5 mph - N/A   Overcast
12:52 PM 34.0°F 30.0°F 85% 30.11 in 7.0 miles Calm Calm - N/A   Overcast
1:52 PM 34.0°F 30.0°F 85% 30.12 in 9.0 miles Calm Calm - N/A   Overcast
2:52 PM 34.0°F 30.9°F 89% 30.14 in 5.0 miles SE 3.5 mph - N/A   Overcast
3:52 PM 34.0°F 30.0°F 85% 30.15 in 9.0 miles West 3.5 mph - N/A   Overcast
4:26 PM 33.8°F 30.2°F 87% 30.11 in 7.0 miles Calm Calm - N/A   Overcast
4:52 PM 33.1°F 30.0°F 89% 30.14 in 7.0 miles SSE 3.5 mph - N/A   Overcast
5:52 PM 33.1°F 30.0°F 89% 30.16 in 8.0 miles SSE 3.5 mph - N/A   Overcast
6:52 PM 33.1°F 30.0°F 89% 30.17 in 8.0 miles SSE 3.5 mph - N/A   Overcast
7:52 PM 32.0°F 30.0°F 92% 30.17 in 10.0 miles SE 4.6 mph - N/A   Overcast
8:52 PM 32.0°F 30.0°F 92% 30.18 in 9.0 miles SE 3.5 mph - N/A   Overcast
9:52 PM 32.0°F 28.9°F 88% 30.18 in 9.0 miles ESE 4.6 mph - N/A   Overcast
10:52 PM 32.0°F 28.9°F 88% 30.20 in 9.0 miles Calm Calm - N/A   Overcast
11:52 PM 32.0°F 28.9°F 88% 30.21 in 9.0 miles SSE 3.5 mph - N/A   Overcast
Moon Phase
Dec. 27 Dec. 28 Jan. 04 Jan. 11 Jan. 18
Sunrise:07:43 AM (PST) Moon Rise:04:04 PM (PST)12/27
Sunset:04:14 PM (PST) Moon Set:06:55 AM (PST)12/27

Copyright © 2014 The Weather Underground, Inc.